Home   Weather   United Kingdom   London   Past weeks
Flag for United Kingdom

Past Weather in London, England, United Kingdom — March 2021

Currently: 45 °F. Light rain. Broken clouds. (Weather station: Northolt, United Kingdom). See more current weather

March 2021 Weather in London — Graph

°F

High & Low Weather Summary for March 2021

 TemperatureHumidityPressure
High75 °F (Mar 30, 2:28 pm)100% (Mar 1, 4:50 am)30.57 "Hg (Mar 1, 4:50 am)
Low30 °F (Mar 7, 9:50 pm)25% (Mar 30, 2:28 pm)29.21 "Hg (Mar 11, 5:50 am)
Average47 °F74%30.16 "Hg
* Reported Mar 1 12:50 am — Mar 31 11:50 pm, London. Weather by CustomWeather, © 2024

Note: Actual official high and low records may vary slightly from our data, if they occured in-between our weather recording intervals... More about our weather records

London Weather History for March 1, 2021

Scroll right to see more
 ConditionsComfort  
Time TempWeatherWind HumidityBarometerVisibility
12:50 am
Mon, Mar 1
39 °FPassing clouds.8 mph93%30.54 "HgN/A
1:50 am39 °FLow clouds.9 mph93%30.51 "HgN/A
2:50 am39 °FLow clouds.9 mph93%30.51 "Hg5 mi
3:50 am39 °FLow clouds.7 mph93%30.48 "Hg2 mi
4:50 am39 °FLow clouds.9 mph100%30.48 "Hg2 mi
5:50 am41 °FLow clouds.9 mph93%30.48 "Hg2 mi
6:50 am41 °FFog.10 mph93%30.48 "Hg2 mi
7:20 am41 °FLow clouds.9 mph93%30.48 "Hg2 mi
8:21 am43 °FLow clouds.10 mph87%30.48 "Hg2 mi
8:50 am43 °FLow clouds.12 mph87%30.48 "Hg3 mi
9:21 am43 °FPartly sunny.12 mph87%30.48 "Hg3 mi
9:50 am45 °FPartly sunny.12 mph81%30.48 "Hg4 mi
10:20 am45 °FPartly sunny.12 mph81%30.48 "Hg4 mi
10:50 am46 °FPartly sunny.13 mph76%30.48 "Hg5 mi
11:20 am46 °FPartly sunny.13 mph76%30.48 "Hg5 mi
11:50 am48 °FScattered clouds.12 mph71%30.48 "Hg5 mi
12:20 pm48 °FHaze.12 mph71%30.45 "Hg5 mi
12:50 pm48 °FHaze.12 mph71%30.45 "Hg5 mi
1:50 pm48 °FHaze.13 mph71%30.45 "Hg5 mi
2:50 pm48 °FPassing clouds.13 mph71%30.42 "HgN/A
3:20 pm48 °FPassing clouds.13 mph66%30.42 "HgN/A
3:50 pm48 °FPassing clouds.12 mph71%30.42 "HgN/A
4:20 pm46 °FPassing clouds.12 mph71%30.42 "HgN/A
4:50 pm46 °FPassing clouds.12 mph71%30.42 "HgN/A
5:20 pm45 °FPassing clouds.8 mph76%30.42 "HgN/A
5:50 pm43 °FPassing clouds.9 mph81%30.42 "HgN/A
6:20 pm41 °FPassing clouds.12 mph87%30.42 "Hg5 mi
6:50 pm41 °FPassing clouds.13 mph87%30.42 "Hg5 mi
7:50 pm39 °FPassing clouds.13 mph87%30.42 "Hg5 mi
8:50 pm39 °FPassing clouds.10 mph87%30.42 "Hg5 mi
9:50 pm39 °FOvercast.10 mph87%30.45 "Hg4 mi
10:50 pm39 °FOvercast.7 mph87%30.42 "Hg4 mi
11:50 pm39 °FOvercast.9 mph87%30.42 "Hg4 mi
Weather by CustomWeather, © 2024

See weather overview